Time,TemperatureF,DewpointF,PressureIn,WindDirection,WindDirectionDegrees,WindSpeedMPH,WindSpeedGustMPH,Humidity,HourlyPrecipIn,Conditions,Clouds,dailyrainin,SoftwareType,DateUTC
2013-03-01 00:00:00,40.6,25.7,30.25,NNW,337,0.0,0.0,55,0.00,,SKC,0.00,VWS V14.01,2013-03-01 06:00:00,
2013-03-01 00:01:00,41.1,26.2,30.24,NNW,337,0.0,0.0,55,0.00,,SKC,0.00,VWS V14.01,2013-03-01 06:01:00,
2013-03-01 00:06:00,41.0,26.1,30.25,NNW,337,0.0,0.0,55,0.00,,SKC,0.00,VWS V14.01,2013-03-01 06:06:00,
2013-03-01 00:10:00,41.1,26.2,30.25,NNW,337,0.0,0.0,55,0.00,,SKC,0.00,VWS V14.01,2013-03-01 06:10:00,
2013-03-01 00:16:00,41.0,26.1,30.25,NNW,337,0.0,0.0,55,0.00,,SKC,0.00,VWS V14.01,2013-03-01 06:16:00,
2013-03-01 00:20:00,40.9,26.0,30.25,NNW,338,0.0,0.0,55,0.00,,SKC,0.00,VWS V14.01,2013-03-01 06:20:00,
2013-03-01 00:21:00,40.9,26.0,30.24,NNW,337,0.0,0.0,55,0.00,,SKC,0.00,VWS V14.01,2013-03-01 06:21:00,
2013-03-01 00:26:00,40.8,25.9,30.24,NNW,337,0.0,0.0,55,0.00,,SKC,0.00,VWS V14.01,2013-03-01 06:26:00,
2013-03-01 00:30:00,40.8,25.9,30.24,NNW,337,0.0,0.0,55,0.00,,SKC,0.00,VWS V14.01,2013-03-01 06:30:00,
2013-03-01 00:31:00,40.8,25.9,30.25,NNW,338,0.0,0.0,55,0.00,,SKC,0.00,VWS V14.01,2013-03-01 06:31:00,
2013-03-01 00:36:00,40.8,25.9,30.24,NNW,338,0.0,0.0,55,0.00,,SKC,0.00,VWS V14.01,2013-03-01 06:36:00,
2013-03-01 00:40:00,40.8,25.9,30.24,NNW,337,0.0,0.0,55,0.00,,SKC,0.00,VWS V14.01,2013-03-01 06:40:00,
2013-03-01 00:41:00,40.9,26.0,30.25,NNW,338,0.0,0.0,55,0.00,,SKC,0.00,VWS V14.01,2013-03-01 06:41:00,
2013-03-01 00:46:00,40.8,25.9,30.25,NNW,337,0.0,0.0,55,0.00,,SKC,0.00,VWS V14.01,2013-03-01 06:46:00,
2013-03-01 00:50:00,40.8,25.9,30.25,NNW,338,0.0,0.0,55,0.00,,SKC,0.00,VWS V14.01,2013-03-01 06:50:00,
2013-03-01 00:51:00,40.7,25.8,30.25,NNW,337,0.0,0.0,55,0.00,,SKC,0.00,VWS V14.01,2013-03-01 06:51:00,
2013-03-01 00:56:00,40.6,25.7,30.25,NNW,338,0.0,0.0,55,0.00,,SKC,0.00,VWS V14.01,2013-03-01 06:56:00,
2013-03-01 01:00:00,40.6,25.7,30.25,NNW,337,0.0,0.0,55,0.00,,SKC,0.00,VWS V14.01,2013-03-01 07:00:00,
2013-03-01 01:01:00,40.6,25.7,30.25,NNW,337,0.0,0.0,55,0.00,,SKC,0.00,VWS V14.01,2013-03-01 07:01:00,
2013-03-01 01:06:00,40.4,25.5,30.25,NNW,337,0.0,0.0,55,0.00,,SKC,0.00,VWS V14.01,2013-03-01 07:06:00,
2013-03-01 01:10:00,40.4,25.5,30.25,NNW,337,0.0,0.0,55,0.00,,SKC,0.00,VWS V14.01,2013-03-01 07:10:00,
2013-03-01 01:16:00,40.1,25.7,30.25,NNW,337,0.0,0.0,56,0.00,,SKC,0.00,VWS V14.01,2013-03-01 07:16:00,
2013-03-01 01:20:00,40.1,25.7,30.25,NNW,337,0.0,0.0,56,0.00,,SKC,0.00,VWS V14.01,2013-03-01 07:20:00,
2013-03-01 01:21:00,39.9,25.5,30.24,NNW,338,0.0,0.0,56,0.00,,SKC,0.00,VWS V14.01,2013-03-01 07:21:00,
2013-03-01 01:26:00,39.8,25.8,30.25,NNW,337,0.0,0.0,57,0.00,,SKC,0.00,VWS V14.01,2013-03-01 07:26:00,
2013-03-01 01:30:00,39.7,25.7,30.25,NNW,338,0.0,0.0,57,0.00,,SKC,0.00,VWS V14.01,2013-03-01 07:30:00,
2013-03-01 01:31:00,39.6,25.6,30.24,NNW,337,0.0,0.0,57,0.00,,SKC,0.00,VWS V14.01,2013-03-01 07:31:00,
2013-03-01 01:36:00,39.5,25.5,30.25,NNW,338,0.0,0.0,57,0.00,,SKC,0.00,VWS V14.01,2013-03-01 07:36:00,
2013-03-01 01:40:00,39.5,25.5,30.25,NNW,337,0.0,0.0,57,0.00,,SKC,0.00,VWS V14.01,2013-03-01 07:40:00,
2013-03-01 01:41:00,39.4,25.5,30.25,NNW,337,0.0,0.0,57,0.00,,SKC,0.00,VWS V14.01,2013-03-01 07:41:00,
2013-03-01 01:46:00,39.3,25.4,30.25,NNW,337,0.0,0.0,57,0.00,,SKC,0.00,VWS V14.01,2013-03-01 07:46:00,
2013-03-01 01:50:00,39.3,25.4,30.25,NNW,338,0.0,0.0,57,0.00,,SKC,0.00,VWS V14.01,2013-03-01 07:50:00,
2013-03-01 01:51:00,39.3,25.4,30.25,NNW,337,0.0,0.0,57,0.00,,SKC,0.00,VWS V14.01,2013-03-01 07:51:00,
2013-03-01 01:56:00,39.2,25.7,30.24,NNW,338,0.0,0.0,58,0.00,,SKC,0.00,VWS V14.01,2013-03-01 07:56:00,
2013-03-01 02:00:00,39.1,25.6,30.24,NNW,337,0.0,0.0,58,0.00,,SKC,0.00,VWS V14.01,2013-03-01 08:00:00,
2013-03-01 02:01:00,39.0,25.5,30.25,NNW,337,0.0,0.0,58,0.00,,SKC,0.00,VWS V14.01,2013-03-01 08:01:00,
2013-03-01 02:06:00,38.9,25.4,30.24,NNW,337,0.0,0.0,58,0.00,,SKC,0.00,VWS V14.01,2013-03-01 08:06:00,
2013-03-01 02:10:00,38.9,25.4,30.25,NNW,337,0.0,0.0,58,0.00,,SKC,0.00,VWS V14.01,2013-03-01 08:10:00,
2013-03-01 02:11:00,38.8,25.3,30.24,NNW,338,0.0,0.0,58,0.00,,SKC,0.00,VWS V14.01,2013-03-01 08:11:00,
2013-03-01 02:16:00,38.7,25.2,30.24,NNW,337,0.0,0.0,58,0.00,,SKC,0.00,VWS V14.01,2013-03-01 08:16:00,
2013-03-01 02:20:00,38.7,25.2,30.24,NNW,338,0.0,0.0,58,0.00,,SKC,0.00,VWS V14.01,2013-03-01 08:20:00,
2013-03-01 02:21:00,38.6,25.5,30.24,NNW,337,0.0,0.0,59,0.00,,SKC,0.00,VWS V14.01,2013-03-01 08:21:00,
2013-03-01 02:26:00,38.5,25.4,30.24,NNW,337,0.0,0.0,59,0.00,,SKC,0.00,VWS V14.01,2013-03-01 08:26:00,
2013-03-01 02:30:00,38.5,25.4,30.24,NNW,337,0.0,0.0,59,0.00,,SKC,0.00,VWS V14.01,2013-03-01 08:30:00,
2013-03-01 02:31:00,38.3,25.2,30.24,NNW,337,0.0,0.0,59,0.00,,SKC,0.00,VWS V14.01,2013-03-01 08:31:00,
2013-03-01 02:36:00,38.1,25.5,30.24,NNW,337,0.0,0.0,60,0.00,,SKC,0.00,VWS V14.01,2013-03-01 08:36:00,
2013-03-01 02:40:00,38.0,25.4,30.24,NNW,337,0.0,0.0,60,0.00,,SKC,0.00,VWS V14.01,2013-03-01 08:40:00,
2013-03-01 02:46:00,37.2,25.4,30.24,NNW,337,0.0,0.0,62,0.00,,SKC,0.00,VWS V14.01,2013-03-01 08:46:00,
2013-03-01 02:50:00,37.2,25.4,30.24,NNW,337,0.0,0.0,62,0.00,,SKC,0.00,VWS V14.01,2013-03-01 08:50:00,
2013-03-01 02:51:00,36.9,25.5,30.24,NNW,338,0.0,0.0,63,0.00,,SKC,0.00,VWS V14.01,2013-03-01 08:51:00,
2013-03-01 02:56:00,36.7,25.7,30.24,NNW,337,0.0,0.0,64,0.00,,SKC,0.00,VWS V14.01,2013-03-01 08:56:00,
2013-03-01 03:00:00,36.7,25.7,30.24,NNW,337,0.0,0.0,64,0.00,,SKC,0.00,VWS V14.01,2013-03-01 09:00:00,
2013-03-01 03:01:00,36.5,25.5,30.24,NNW,337,0.0,0.0,64,0.00,,SKC,0.00,VWS V14.01,2013-03-01 09:01:00,
2013-03-01 03:06:00,36.3,25.3,30.24,NNW,337,0.0,0.0,64,0.00,,SKC,0.00,VWS V14.01,2013-03-01 09:06:00,
2013-03-01 03:10:00,36.3,25.3,30.24,NNW,337,0.0,0.0,64,0.00,,SKC,0.00,VWS V14.01,2013-03-01 09:10:00,
2013-03-01 03:11:00,36.2,25.2,30.24,NNW,337,0.0,0.0,64,0.00,,SKC,0.00,VWS V14.01,2013-03-01 09:11:00,
2013-03-01 03:16:00,36.1,25.5,30.24,NNW,337,0.0,0.0,65,0.00,,SKC,0.00,VWS V14.01,2013-03-01 09:16:00,
2013-03-01 03:20:00,36.0,25.4,30.24,NNW,337,0.0,0.0,65,0.00,,SKC,0.00,VWS V14.01,2013-03-01 09:20:00,
2013-03-01 03:21:00,36.0,25.4,30.24,NNW,338,0.0,0.0,65,0.00,,SKC,0.00,VWS V14.01,2013-03-01 09:21:00,
2013-03-01 03:26:00,36.1,25.5,30.24,NNW,337,0.0,0.0,65,0.00,,SKC,0.00,VWS V14.01,2013-03-01 09:26:00,
2013-03-01 03:30:00,36.1,25.5,30.24,NNW,337,0.0,0.0,65,0.00,,SKC,0.00,VWS V14.01,2013-03-01 09:30:00,
2013-03-01 03:31:00,36.2,25.6,30.24,NNW,337,0.0,0.0,65,0.00,,SKC,0.00,VWS V14.01,2013-03-01 09:31:00,
2013-03-01 03:40:00,36.4,25.4,30.24,NNW,337,0.0,0.0,64,0.00,,SKC,0.00,VWS V14.01,2013-03-01 09:40:00,
2013-03-01 03:41:00,36.5,25.5,30.24,NNW,338,0.0,0.0,64,0.00,,SKC,0.00,VWS V14.01,2013-03-01 09:41:00,
2013-03-01 03:46:00,36.6,25.6,30.24,NNW,337,0.0,0.0,64,0.00,,SKC,0.00,VWS V14.01,2013-03-01 09:46:00,
2013-03-01 03:50:00,36.6,25.6,30.24,NNW,338,0.0,0.0,64,0.00,,SKC,0.00,VWS V14.01,2013-03-01 09:50:00,
2013-03-01 03:51:00,36.7,25.7,30.24,NNW,337,0.0,0.0,64,0.00,,SKC,0.00,VWS V14.01,2013-03-01 09:51:00,
2013-03-01 03:56:00,36.8,25.4,30.24,NNW,337,0.0,0.0,63,0.00,,SKC,0.00,VWS V14.01,2013-03-01 09:56:00,
2013-03-01 04:00:00,36.8,25.4,30.24,NNW,337,0.0,0.0,63,0.00,,SKC,0.00,VWS V14.01,2013-03-01 10:00:00,
2013-03-01 04:01:00,37.0,25.6,30.24,NNW,337,0.0,0.0,63,0.00,,SKC,0.00,VWS V14.01,2013-03-01 10:01:00,
2013-03-01 04:06:00,37.1,25.7,30.24,NNW,338,0.0,0.0,63,0.00,,SKC,0.00,VWS V14.01,2013-03-01 10:06:00,
2013-03-01 04:10:00,37.1,25.7,30.24,NNW,338,0.0,0.0,63,0.00,,SKC,0.00,VWS V14.01,2013-03-01 10:10:00,
2013-03-01 04:11:00,37.2,25.8,30.25,NNW,337,0.0,0.0,63,0.00,,SKC,0.00,VWS V14.01,2013-03-01 10:11:00,
2013-03-01 04:16:00,37.2,25.8,30.25,NNW,338,0.0,0.0,63,0.00,,SKC,0.00,VWS V14.01,2013-03-01 10:16:00,
2013-03-01 04:20:00,37.2,25.8,30.25,NNW,338,0.0,0.0,63,0.00,,SKC,0.00,VWS V14.01,2013-03-01 10:20:00,
2013-03-01 04:21:00,37.3,25.5,30.25,NNW,338,0.0,0.0,62,0.00,,SKC,0.00,VWS V14.01,2013-03-01 10:21:00,
2013-03-01 04:26:00,37.3,25.9,30.25,NNW,337,0.0,0.0,63,0.00,,SKC,0.00,VWS V14.01,2013-03-01 10:26:00,
2013-03-01 04:30:00,37.3,25.9,30.25,NNW,337,0.0,0.0,63,0.00,,SKC,0.00,VWS V14.01,2013-03-01 10:30:00,
2013-03-01 04:31:00,37.4,26.0,30.24,NNW,337,0.0,0.0,63,0.00,,SKC,0.00,VWS V14.01,2013-03-01 10:31:00,
2013-03-01 04:36:00,37.4,26.0,30.24,NNW,337,0.0,0.0,63,0.00,,SKC,0.00,VWS V14.01,2013-03-01 10:36:00,
2013-03-01 04:40:00,37.4,26.0,30.24,NNW,338,0.0,0.0,63,0.00,,SKC,0.00,VWS V14.01,2013-03-01 10:40:00,
2013-03-01 04:41:00,37.3,25.9,30.24,NNW,338,0.0,0.0,63,0.00,,SKC,0.00,VWS V14.01,2013-03-01 10:41:00,
2013-03-01 04:46:00,37.2,25.4,30.24,NNW,338,0.0,0.0,62,0.00,,SKC,0.00,VWS V14.01,2013-03-01 10:46:00,
2013-03-01 04:50:00,37.2,25.4,30.24,NNW,338,0.0,0.0,62,0.00,,SKC,0.00,VWS V14.01,2013-03-01 10:50:00,
2013-03-01 04:51:00,37.1,25.3,30.25,NNW,337,0.0,0.0,62,0.00,,SKC,0.00,VWS V14.01,2013-03-01 10:51:00,
2013-03-01 04:56:00,37.0,24.8,30.25,NNW,337,0.0,0.0,61,0.00,,SKC,0.00,VWS V14.01,2013-03-01 10:56:00,
2013-03-01 05:00:00,37.0,24.8,30.25,NNW,337,0.0,0.0,61,0.00,,SKC,0.00,VWS V14.01,2013-03-01 11:00:00,
2013-03-01 05:01:00,37.0,24.8,30.25,NNW,337,0.0,0.0,61,0.00,,SKC,0.00,VWS V14.01,2013-03-01 11:01:00,
2013-03-01 05:06:00,37.0,24.8,30.25,NNW,338,0.0,0.0,61,0.00,,SKC,0.00,VWS V14.01,2013-03-01 11:06:00,
2013-03-01 05:10:00,37.0,24.8,30.25,NNW,338,0.0,0.0,61,0.00,,SKC,0.00,VWS V14.01,2013-03-01 11:10:00,
2013-03-01 05:11:00,37.0,24.8,30.25,NNW,337,0.0,0.0,61,0.00,,SKC,0.00,VWS V14.01,2013-03-01 11:11:00,
2013-03-01 05:16:00,36.9,24.7,30.25,NNW,337,0.0,0.0,61,0.00,,SKC,0.00,VWS V14.01,2013-03-01 11:16:00,
2013-03-01 05:20:00,36.9,24.7,30.25,NNW,337,0.0,0.0,61,0.00,,SKC,0.00,VWS V14.01,2013-03-01 11:20:00,
2013-03-01 05:21:00,36.8,24.6,30.26,NNW,337,0.0,0.0,61,0.00,,SKC,0.00,VWS V14.01,2013-03-01 11:21:00,
2013-03-01 05:26:00,36.7,24.5,30.26,NNW,338,0.0,0.0,61,0.00,,SKC,0.00,VWS V14.01,2013-03-01 11:26:00,
2013-03-01 05:30:00,36.7,24.5,30.26,NNW,337,0.0,0.0,61,0.00,,SKC,0.00,VWS V14.01,2013-03-01 11:30:00,
2013-03-01 05:31:00,36.6,24.8,30.26,NNW,338,0.0,0.0,62,0.00,,SKC,0.00,VWS V14.01,2013-03-01 11:31:00,
2013-03-01 05:36:00,36.4,24.6,30.26,NNW,337,0.0,0.0,62,0.00,,SKC,0.00,VWS V14.01,2013-03-01 11:36:00,
2013-03-01 05:40:00,36.4,28.2,30.25,NNW,337,0.0,0.0,72,0.00,,SKC,0.00,VWS V14.01,2013-03-01 11:40:00,
2013-03-01 05:41:00,36.4,25.0,30.26,NNW,337,0.0,0.0,63,0.00,,SKC,0.00,VWS V14.01,2013-03-01 11:41:00,
2013-03-01 05:46:00,36.2,25.2,30.26,NNW,337,0.0,0.0,64,0.00,,SKC,0.00,VWS V14.01,2013-03-01 11:46:00,
2013-03-01 05:50:00,36.2,25.6,30.25,NNW,337,0.0,0.0,65,0.00,,SKC,0.00,VWS V14.01,2013-03-01 11:50:00,
2013-03-01 05:51:00,36.1,24.7,30.26,NNW,337,0.0,0.0,63,0.00,,SKC,0.00,VWS V14.01,2013-03-01 11:51:00,
2013-03-01 05:56:00,36.0,25.0,30.26,NNW,338,0.0,0.0,64,0.00,,SKC,0.00,VWS V14.01,2013-03-01 11:56:00,
2013-03-01 06:00:00,35.7,25.1,30.25,NNW,337,0.0,0.0,65,0.00,,SKC,0.00,VWS V14.01,2013-03-01 12:00:00,
2013-03-01 06:01:00,35.9,25.7,30.26,NNW,337,0.0,0.0,66,0.00,,SKC,0.00,VWS V14.01,2013-03-01 12:01:00,
2013-03-01 06:06:00,35.9,26.0,30.26,NNW,338,0.0,0.0,67,0.00,,SKC,0.00,VWS V14.01,2013-03-01 12:06:00,
2013-03-01 06:10:00,35.4,25.2,30.25,NNW,337,0.0,0.0,66,0.00,,SKC,0.00,VWS V14.01,2013-03-01 12:10:00,
2013-03-01 06:11:00,35.9,26.0,30.26,NNW,337,0.0,0.0,67,0.00,,SKC,0.00,VWS V14.01,2013-03-01 12:11:00,
2013-03-01 06:16:00,35.9,26.4,30.26,NNW,337,0.0,0.0,68,0.00,,SKC,0.00,VWS V14.01,2013-03-01 12:16:00,
2013-03-01 06:20:00,35.3,25.1,30.25,NNW,338,0.0,0.0,66,0.00,,SKC,0.00,VWS V14.01,2013-03-01 12:20:00,
2013-03-01 06:21:00,36.1,26.9,30.26,NNW,337,0.0,0.0,69,0.00,,SKC,0.00,VWS V14.01,2013-03-01 12:21:00,
2013-03-01 06:26:00,36.1,26.6,30.26,NNW,337,0.0,0.0,68,0.00,,SKC,0.00,VWS V14.01,2013-03-01 12:26:00,
2013-03-01 06:30:00,35.4,25.2,30.26,NNW,337,0.0,0.0,66,0.00,,SKC,0.00,VWS V14.01,2013-03-01 12:30:00,
2013-03-01 06:31:00,36.3,27.8,30.26,NNW,337,0.0,0.0,71,0.00,,SKC,0.00,VWS V14.01,2013-03-01 12:31:00,
2013-03-01 06:36:00,36.4,27.9,30.25,NNW,337,0.0,0.0,71,0.00,,SKC,0.00,VWS V14.01,2013-03-01 12:36:00,
2013-03-01 06:40:00,35.7,25.5,30.27,NNW,337,0.0,0.0,66,0.00,,SKC,0.00,VWS V14.01,2013-03-01 12:40:00,
2013-03-01 06:41:00,36.4,27.2,30.25,NNW,337,0.0,0.0,69,0.00,,SKC,0.00,VWS V14.01,2013-03-01 12:41:00,
2013-03-01 06:46:00,36.2,26.0,30.25,NNW,338,0.0,0.0,66,0.00,,SKC,0.00,VWS V14.01,2013-03-01 12:46:00,
2013-03-01 06:50:00,36.2,26.0,30.27,NNW,338,0.0,0.0,66,0.00,,SKC,0.00,VWS V14.01,2013-03-01 12:50:00,
2013-03-01 06:51:00,36.0,25.4,30.25,NNW,337,0.0,0.0,65,0.00,,SKC,0.00,VWS V14.01,2013-03-01 12:51:00,
2013-03-01 06:56:00,35.8,25.2,30.25,NNW,338,0.0,0.0,65,0.00,,SKC,0.00,VWS V14.01,2013-03-01 12:56:00,
2013-03-01 07:00:00,37.3,26.2,30.27,NNW,337,0.0,0.0,64,0.00,,SKC,0.00,VWS V14.01,2013-03-01 13:00:00,
2013-03-01 07:01:00,35.6,25.4,30.25,NNW,337,0.0,0.0,66,0.00,,SKC,0.00,VWS V14.01,2013-03-01 13:01:00,
2013-03-01 07:06:00,35.4,25.2,30.25,NNW,337,0.0,0.0,66,0.00,,SKC,0.00,VWS V14.01,2013-03-01 13:06:00,
2013-03-01 07:10:00,38.9,27.4,30.27,NNW,337,0.0,0.0,63,0.00,,SKC,0.00,VWS V14.01,2013-03-01 13:10:00,
2013-03-01 07:11:00,35.3,25.1,30.25,NNW,337,0.0,0.0,66,0.00,,SKC,0.00,VWS V14.01,2013-03-01 13:11:00,
2013-03-01 07:16:00,35.3,25.1,30.25,NNW,338,0.0,0.0,66,0.00,,SKC,0.00,VWS V14.01,2013-03-01 13:16:00,
2013-03-01 07:20:00,41.0,29.0,30.27,NNW,337,0.0,0.0,62,0.00,,SKC,0.00,VWS V14.01,2013-03-01 13:20:00,
2013-03-01 07:21:00,35.3,25.1,30.26,NNW,337,0.0,0.0,66,0.00,,SKC,0.00,VWS V14.01,2013-03-01 13:21:00,
2013-03-01 07:26:00,35.4,25.2,30.26,NNW,337,0.0,0.0,66,0.00,,SKC,0.00,VWS V14.01,2013-03-01 13:26:00,
2013-03-01 07:30:00,43.3,30.0,30.28,NNW,337,0.0,0.0,59,0.00,,SKC,0.00,VWS V14.01,2013-03-01 13:30:00,
2013-03-01 07:31:00,35.5,25.3,30.26,NNW,337,0.0,0.0,66,0.00,,SKC,0.00,VWS V14.01,2013-03-01 13:31:00,
2013-03-01 07:36:00,35.6,25.4,30.27,NNW,338,0.0,0.0,66,0.00,,SKC,0.00,VWS V14.01,2013-03-01 13:36:00,
2013-03-01 07:40:00,46.4,30.7,30.29,NNW,338,0.0,0.0,54,0.00,,SKC,0.00,VWS V14.01,2013-03-01 13:40:00,
2013-03-01 07:41:00,35.9,25.7,30.27,NNW,337,0.0,0.0,66,0.00,,SKC,0.00,VWS V14.01,2013-03-01 13:41:00,
2013-03-01 07:46:00,36.1,25.5,30.27,NNW,337,0.0,0.0,65,0.00,,SKC,0.00,VWS V14.01,2013-03-01 13:46:00,
2013-03-01 07:50:00,49.9,28.9,30.29,NW,314,0.0,4.0,44,0.00,,SKC,0.00,VWS V14.01,2013-03-01 13:50:00,
2013-03-01 07:51:00,36.5,25.9,30.27,NNW,337,0.0,0.0,65,0.00,,SKC,0.00,VWS V14.01,2013-03-01 13:51:00,
2013-03-01 07:56:00,37.1,26.4,30.27,NNW,337,0.0,0.0,65,0.00,,SKC,0.00,VWS V14.01,2013-03-01 13:56:00,
2013-03-01 08:00:00,52.6,30.2,30.29,NW,314,0.0,0.0,42,0.00,,SKC,0.00,VWS V14.01,2013-03-01 14:00:00,
2013-03-01 08:01:00,37.9,26.8,30.27,NNW,337,0.0,0.0,64,0.00,,SKC,0.00,VWS V14.01,2013-03-01 14:01:00,
2013-03-01 08:06:00,38.7,27.2,30.27,NNW,337,0.0,0.0,63,0.00,,SKC,0.00,VWS V14.01,2013-03-01 14:06:00,
2013-03-01 08:10:00,54.9,29.8,30.29,NW,314,0.0,2.0,38,0.00,,SKC,0.00,VWS V14.01,2013-03-01 14:10:00,
2013-03-01 08:11:00,39.8,28.2,30.27,NNW,337,0.0,0.0,63,0.00,,SKC,0.00,VWS V14.01,2013-03-01 14:11:00,
2013-03-01 08:16:00,40.8,28.8,30.27,NNW,337,0.0,0.0,62,0.00,,SKC,0.00,VWS V14.01,2013-03-01 14:16:00,
2013-03-01 08:20:00,56.6,30.0,30.29,NW,314,0.0,1.0,36,0.00,,SKC,0.00,VWS V14.01,2013-03-01 14:20:00,
2013-03-01 08:21:00,41.9,29.5,30.28,NNW,338,0.0,0.0,61,0.00,,SKC,0.00,VWS V14.01,2013-03-01 14:21:00,
2013-03-01 08:26:00,43.1,30.2,30.28,NNW,337,0.0,0.0,60,0.00,,SKC,0.00,VWS V14.01,2013-03-01 14:26:00,
2013-03-01 08:30:00,57.8,29.6,30.28,NW,317,0.0,5.0,34,0.00,,SKC,0.00,VWS V14.01,2013-03-01 14:30:00,
2013-03-01 08:31:00,44.6,29.9,30.28,NNW,337,0.0,0.0,56,0.00,,SKC,0.00,VWS V14.01,2013-03-01 14:31:00,
2013-03-01 08:36:00,46.1,30.4,30.29,NNW,338,0.0,0.0,54,0.00,,SKC,0.00,VWS V14.01,2013-03-01 14:36:00,
2013-03-01 08:40:00,58.4,30.9,30.28,NW,319,0.0,5.0,35,0.00,,SKC,0.00,VWS V14.01,2013-03-01 14:40:00,
2013-03-01 08:41:00,47.7,29.0,30.29,NNW,337,0.0,0.0,48,0.00,,SKC,0.00,VWS V14.01,2013-03-01 14:41:00,
2013-03-01 08:46:00,49.7,29.8,30.29,NW,314,0.0,4.0,46,0.00,,SKC,0.00,VWS V14.01,2013-03-01 14:46:00,
2013-03-01 08:50:00,59.4,29.6,30.29,NW,319,0.0,1.0,32,0.00,,SKC,0.00,VWS V14.01,2013-03-01 14:50:00,
2013-03-01 08:51:00,51.1,30.0,30.29,NW,314,0.0,0.0,44,0.00,,SKC,0.00,VWS V14.01,2013-03-01 14:51:00,
2013-03-01 08:56:00,52.4,30.0,30.29,NW,314,0.0,0.0,42,0.00,,SKC,0.00,VWS V14.01,2013-03-01 14:56:00,
2013-03-01 09:00:00,60.2,30.2,30.28,NW,319,0.0,0.0,32,0.00,,SKC,0.00,VWS V14.01,2013-03-01 15:00:00,
2013-03-01 09:01:00,53.6,30.5,30.29,NW,314,0.0,2.0,41,0.00,,SKC,0.00,VWS V14.01,2013-03-01 15:01:00,
2013-03-01 09:06:00,54.7,30.2,30.29,NW,314,0.0,2.0,39,0.00,,SKC,0.00,VWS V14.01,2013-03-01 15:06:00,
2013-03-01 09:10:00,61.1,29.5,30.28,NW,319,0.0,0.0,30,0.00,,SKC,0.00,VWS V14.01,2013-03-01 15:10:00,
2013-03-01 09:11:00,55.6,30.4,30.29,NW,314,0.0,0.0,38,0.00,,SKC,0.00,VWS V14.01,2013-03-01 15:11:00,
2013-03-01 09:16:00,56.4,29.8,30.29,NW,314,0.0,1.0,36,0.00,,SKC,0.00,VWS V14.01,2013-03-01 15:16:00,
2013-03-01 09:20:00,61.9,30.1,30.27,NW,319,0.0,1.0,30,0.00,,SKC,0.00,VWS V14.01,2013-03-01 15:20:00,
2013-03-01 09:21:00,57.3,30.6,30.29,NW,317,0.0,5.0,36,0.00,,SKC,0.00,VWS V14.01,2013-03-01 15:21:00,
2013-03-01 09:26:00,57.8,29.6,30.28,NW,317,0.0,5.0,34,0.00,,SKC,0.00,VWS V14.01,2013-03-01 15:26:00,
2013-03-01 09:30:00,62.4,28.9,30.27,NW,319,0.0,0.0,28,0.00,,SKC,0.00,VWS V14.01,2013-03-01 15:30:00,
2013-03-01 09:31:00,58.0,29.8,30.29,NW,318,0.0,3.0,34,0.00,,SKC,0.00,VWS V14.01,2013-03-01 15:31:00,
2013-03-01 09:36:00,58.4,30.2,30.28,NW,319,0.0,5.0,34,0.00,,SKC,0.00,VWS V14.01,2013-03-01 15:36:00,
2013-03-01 09:40:00,63.1,29.5,30.26,NW,318,0.0,1.0,28,0.00,,SKC,0.00,VWS V14.01,2013-03-01 15:40:00,
2013-03-01 09:41:00,58.7,28.9,30.28,NW,319,0.0,1.0,32,0.00,,SKC,0.00,VWS V14.01,2013-03-01 15:41:00,
2013-03-01 09:46:00,59.3,30.2,30.29,NW,319,0.0,1.0,33,0.00,,SKC,0.00,VWS V14.01,2013-03-01 15:46:00,
2013-03-01 09:50:00,63.4,29.8,30.26,NW,317,0.0,2.0,28,0.00,,SKC,0.00,VWS V14.01,2013-03-01 15:50:00,
2013-03-01 09:51:00,59.7,30.6,30.28,NW,319,0.0,0.0,33,0.00,,SKC,0.00,VWS V14.01,2013-03-01 15:51:00,
2013-03-01 09:56:00,60.1,30.2,30.28,NW,319,0.0,0.0,32,0.00,,SKC,0.00,VWS V14.01,2013-03-01 15:56:00,
2013-03-01 10:00:00,64.9,30.1,30.25,NW,317,0.0,0.0,27,0.00,,SKC,0.00,VWS V14.01,2013-03-01 16:00:00,
2013-03-01 10:01:00,60.5,29.7,30.28,NW,319,0.0,0.0,31,0.00,,SKC,0.00,VWS V14.01,2013-03-01 16:01:00,
2013-03-01 10:06:00,61.1,29.5,30.28,NW,319,0.0,0.0,30,0.00,,SKC,0.00,VWS V14.01,2013-03-01 16:06:00,
2013-03-01 10:10:00,65.6,30.8,30.25,NW,304,0.0,3.0,27,0.00,,SKC,0.00,VWS V14.01,2013-03-01 16:10:00,
2013-03-01 10:11:00,61.3,28.8,30.28,NW,319,0.0,0.0,29,0.00,,SKC,0.00,VWS V14.01,2013-03-01 16:11:00,
2013-03-01 10:16:00,61.8,30.9,30.27,NW,319,0.0,1.0,31,0.00,,SKC,0.00,VWS V14.01,2013-03-01 16:16:00,
2013-03-01 10:20:00,65.7,29.9,30.25,WSW,248,0.0,7.0,26,0.00,,SKC,0.00,VWS V14.01,2013-03-01 16:20:00,
2013-03-01 10:21:00,62.2,29.6,30.27,NW,319,0.0,0.0,29,0.00,,SKC,0.00,VWS V14.01,2013-03-01 16:21:00,
2013-03-01 10:26:00,62.3,28.8,30.27,NW,319,0.0,0.0,28,0.00,,SKC,0.00,VWS V14.01,2013-03-01 16:26:00,
2013-03-01 10:30:00,65.6,29.8,30.25,WSW,245,2.0,8.0,26,0.00,,SKC,0.00,VWS V14.01,2013-03-01 16:30:00,
2013-03-01 10:31:00,62.5,30.7,30.27,NW,319,0.0,0.0,30,0.00,,SKC,0.00,VWS V14.01,2013-03-01 16:31:00,
2013-03-01 10:35:00,63.1,28.6,30.26,NW,318,0.0,1.0,27,0.00,,SKC,0.00,VWS V14.01,2013-03-01 16:35:00,
2013-03-01 10:40:00,63.3,29.7,30.26,NW,317,0.0,0.0,28,0.00,,SKC,0.00,VWS V14.01,2013-03-01 16:40:00,
2013-03-01 10:45:00,63.4,30.6,30.26,NW,317,0.0,2.0,29,0.00,,SKC,0.00,VWS V14.01,2013-03-01 16:45:00,
2013-03-01 10:50:00,63.9,30.2,30.26,NW,317,0.0,0.0,28,0.00,,SKC,0.00,VWS V14.01,2013-03-01 16:50:00,
2013-03-01 10:55:00,64.7,31.7,30.25,NW,317,0.0,0.0,29,0.00,,SKC,0.00,VWS V14.01,2013-03-01 16:55:00,
2013-03-01 11:00:00,65.4,30.6,30.25,NW,316,0.0,0.0,27,0.00,,SKC,0.00,VWS V14.01,2013-03-01 17:00:00,
2013-03-01 11:05:00,65.6,30.8,30.25,NW,304,0.0,3.0,27,0.00,,SKC,0.00,VWS V14.01,2013-03-01 17:05:00,
2013-03-01 11:10:00,65.6,29.8,30.25,West,271,0.0,7.0,26,0.00,,SKC,0.00,VWS V14.01,2013-03-01 17:10:00,
2013-03-01 11:15:00,65.6,30.8,30.25,WSW,248,6.0,7.0,27,0.00,,SKC,0.00,VWS V14.01,2013-03-01 17:15:00,
2013-03-01 11:20:00,65.8,30.0,30.25,WSW,248,3.0,4.0,26,0.00,,SKC,0.00,VWS V14.01,2013-03-01 17:20:00,
2013-03-01 11:25:00,65.6,29.8,30.25,WSW,246,2.0,8.0,26,0.00,,SKC,0.00,VWS V14.01,2013-03-01 17:25:00,
2013-03-01 11:30:00,65.3,29.6,30.25,WSW,241,0.0,8.0,26,0.00,,SKC,0.00,VWS V14.01,2013-03-01 17:30:00,
2013-03-01 11:35:00,65.3,30.5,30.24,WSW,240,0.0,8.0,27,0.00,,SKC,0.00,VWS V14.01,2013-03-01 17:35:00,
2013-03-01 11:40:00,65.4,29.6,30.24,WSW,237,0.0,4.0,26,0.00,,SKC,0.00,VWS V14.01,2013-03-01 17:40:00,
2013-03-01 11:45:00,65.7,29.0,30.24,SW,232,0.0,8.0,25,0.00,,SKC,0.00,VWS V14.01,2013-03-01 17:45:00,
2013-03-01 11:50:00,65.9,29.1,30.24,SW,232,0.0,5.0,25,0.00,,SKC,0.00,VWS V14.01,2013-03-01 17:50:00,
2013-03-01 11:55:00,66.3,29.5,30.23,SW,232,0.0,5.0,25,0.00,,SKC,0.00,VWS V14.01,2013-03-01 17:55:00,
2013-03-01 12:00:00,66.5,28.6,30.23,SW,216,0.0,7.0,24,0.00,,SKC,0.00,VWS V14.01,2013-03-01 18:00:00,
2013-03-01 12:05:00,66.8,28.9,30.23,SW,216,2.0,9.0,24,0.00,,SKC,0.00,VWS V14.01,2013-03-01 18:05:00,
2013-03-01 12:10:00,67.1,30.1,30.22,SW,217,2.0,4.0,25,0.00,,SKC,0.00,VWS V14.01,2013-03-01 18:10:00,
2013-03-01 12:15:00,67.6,30.6,30.22,SW,221,0.0,6.0,25,0.00,,SKC,0.00,VWS V14.01,2013-03-01 18:15:00,
2013-03-01 12:20:00,68.1,28.9,30.22,SW,220,0.0,7.0,23,0.00,,SKC,0.00,VWS V14.01,2013-03-01 18:20:00,
2013-03-01 12:25:00,68.6,29.4,30.22,SW,230,0.0,9.0,23,0.00,,SKC,0.00,VWS V14.01,2013-03-01 18:25:00,
2013-03-01 12:30:00,68.3,28.0,30.22,SW,215,0.0,5.0,22,0.00,,SKC,0.00,VWS V14.01,2013-03-01 18:30:00,
2013-03-01 12:35:00,68.1,28.9,30.21,West,261,4.0,7.0,23,0.00,,SKC,0.00,VWS V14.01,2013-03-01 18:35:00,
2013-03-01 12:40:00,68.4,28.1,30.21,SW,218,3.0,12.0,22,0.00,,SKC,0.00,VWS V14.01,2013-03-01 18:40:00,
2013-03-01 12:45:00,68.1,30.0,30.20,SW,214,1.0,12.0,24,0.00,,SKC,0.00,VWS V14.01,2013-03-01 18:45:00,
2013-03-01 12:50:00,68.3,29.1,30.20,SW,223,3.0,5.0,23,0.00,,SKC,0.00,VWS V14.01,2013-03-01 18:50:00,
2013-03-01 12:55:00,68.7,28.4,30.20,WSW,243,0.0,8.0,22,0.00,,SKC,0.00,VWS V14.01,2013-03-01 18:55:00,
2013-03-01 13:00:00,68.9,28.5,30.20,WSW,242,0.0,8.0,22,0.00,,SKC,0.00,VWS V14.01,2013-03-01 19:00:00,
2013-03-01 13:05:00,69.1,28.7,30.19,WSW,242,0.0,8.0,22,0.00,,SKC,0.00,VWS V14.01,2013-03-01 19:05:00,
2013-03-01 13:10:00,69.2,27.6,30.19,WSW,238,0.0,6.0,21,0.00,,SKC,0.00,VWS V14.01,2013-03-01 19:10:00,
2013-03-01 13:15:00,69.5,27.9,30.19,West,260,4.0,9.0,21,0.00,,SKC,0.00,VWS V14.01,2013-03-01 19:15:00,
2013-03-01 13:20:00,70.0,28.3,30.19,WSW,248,2.0,7.0,21,0.00,,SKC,0.00,VWS V14.01,2013-03-01 19:20:00,
2013-03-01 13:25:00,69.7,28.0,30.18,SSW,208,0.0,8.0,21,0.00,,SKC,0.00,VWS V14.01,2013-03-01 19:25:00,
2013-03-01 13:30:00,69.6,29.1,30.18,West,260,8.0,9.0,22,0.00,,SKC,0.00,VWS V14.01,2013-03-01 19:30:00,
2013-03-01 13:35:00,69.7,29.2,30.17,WSW,245,0.0,9.0,22,0.00,,SKC,0.00,VWS V14.01,2013-03-01 19:35:00,
2013-03-01 13:40:00,70.4,28.6,30.18,WNW,282,3.0,10.0,21,0.00,,SKC,0.00,VWS V14.01,2013-03-01 19:40:00,
2013-03-01 13:45:00,71.0,28.0,30.17,WSW,258,2.0,10.0,20,0.00,,SKC,0.00,VWS V14.01,2013-03-01 19:45:00,
2013-03-01 13:50:00,71.5,29.5,30.17,West,267,0.0,9.0,21,0.00,,SKC,0.00,VWS V14.01,2013-03-01 19:50:00,
2013-03-01 13:55:00,71.6,28.4,30.17,SSW,211,0.0,9.0,20,0.00,,SKC,0.00,VWS V14.01,2013-03-01 19:55:00,
2013-03-01 14:00:00,71.3,28.2,30.16,SW,224,0.0,9.0,20,0.00,,SKC,0.00,VWS V14.01,2013-03-01 20:00:00,
2013-03-01 14:05:00,71.1,28.0,30.16,WSW,248,9.0,11.0,20,0.00,,SKC,0.00,VWS V14.01,2013-03-01 20:05:00,
2013-03-01 14:10:00,71.0,26.7,30.16,WSW,250,0.0,10.0,19,0.00,,SKC,0.00,VWS V14.01,2013-03-01 20:10:00,
2013-03-01 14:15:00,71.2,28.1,30.15,WSW,244,1.0,10.0,20,0.00,,SKC,0.00,VWS V14.01,2013-03-01 20:15:00,
2013-03-01 14:20:00,71.1,26.8,30.15,SW,229,0.0,6.0,19,0.00,,SKC,0.00,VWS V14.01,2013-03-01 20:20:00,
2013-03-01 14:25:00,70.8,26.5,30.15,SW,232,0.0,7.0,19,0.00,,SKC,0.00,VWS V14.01,2013-03-01 20:25:00,
2013-03-01 14:30:00,70.9,26.6,30.14,SW,234,0.0,2.0,19,0.00,,SKC,0.00,VWS V14.01,2013-03-01 20:30:00,
2013-03-01 14:35:00,71.4,25.7,30.15,WNW,289,0.0,7.0,18,0.00,,SKC,0.00,VWS V14.01,2013-03-01 20:35:00,
2013-03-01 14:40:00,71.9,27.4,30.14,WNW,292,0.0,5.0,19,0.00,,SKC,0.00,VWS V14.01,2013-03-01 20:40:00,
2013-03-01 14:45:00,72.3,26.5,30.14,WNW,288,0.0,5.0,18,0.00,,SKC,0.00,VWS V14.01,2013-03-01 20:45:00,
2013-03-01 14:50:00,72.1,26.3,30.14,WNW,286,0.0,5.0,18,0.00,,SKC,0.00,VWS V14.01,2013-03-01 20:50:00,
2013-03-01 14:55:00,71.8,26.0,30.14,WNW,286,0.0,5.0,18,0.00,,SKC,0.00,VWS V14.01,2013-03-01 20:55:00,
2013-03-01 15:00:00,71.5,25.8,30.12,WNW,286,0.0,0.0,18,0.00,,SKC,0.00,VWS V14.01,2013-03-01 21:00:00,
2013-03-01 15:05:00,71.0,26.7,30.13,WNW,286,0.0,0.0,19,0.00,,SKC,0.00,VWS V14.01,2013-03-01 21:05:00,
2013-03-01 15:10:00,70.7,26.5,30.12,WNW,285,0.0,5.0,19,0.00,,SKC,0.00,VWS V14.01,2013-03-01 21:10:00,
2013-03-01 15:15:00,70.7,26.5,30.12,West,269,0.0,8.0,19,0.00,,SKC,0.00,VWS V14.01,2013-03-01 21:15:00,
2013-03-01 15:20:00,71.5,24.4,30.11,WNW,296,0.0,5.0,17,0.00,,SKC,0.00,VWS V14.01,2013-03-01 21:20:00,
2013-03-01 15:21:00,71.3,25.6,30.12,NW,315,0.0,9.0,18,0.00,,SKC,0.00,VWS V14.01,2013-03-01 21:21:00,
2013-03-01 15:26:00,71.8,24.7,30.12,NW,317,0.0,9.0,17,0.00,,SKC,0.00,VWS V14.01,2013-03-01 21:26:00,
2013-03-01 15:30:00,71.2,25.6,30.11,NW,304,0.0,7.0,18,0.00,,SKC,0.00,VWS V14.01,2013-03-01 21:30:00,
2013-03-01 15:31:00,72.0,24.8,30.12,NNW,346,0.0,7.0,17,0.00,,SKC,0.00,VWS V14.01,2013-03-01 21:31:00,
2013-03-01 15:35:00,72.4,26.5,30.12,NNW,346,0.0,7.0,18,0.00,,SKC,0.00,VWS V14.01,2013-03-01 21:35:00,
2013-03-01 15:40:00,73.3,25.9,30.11,NW,308,8.0,8.0,17,0.00,,SKC,0.00,VWS V14.01,2013-03-01 21:40:00,
2013-03-01 15:45:00,73.5,26.1,30.11,WSW,242,2.0,11.0,17,0.00,,SKC,0.00,VWS V14.01,2013-03-01 21:45:00,
2013-03-01 15:50:00,72.9,25.6,30.11,West,267,0.0,8.0,17,0.00,,SKC,0.00,VWS V14.01,2013-03-01 21:50:00,
2013-03-01 15:55:00,72.5,25.2,30.12,West,259,0.0,8.0,17,0.00,,SKC,0.00,VWS V14.01,2013-03-01 21:55:00,
2013-03-01 16:00:00,72.3,25.1,30.11,NW,312,5.0,8.0,17,0.00,,SKC,0.00,VWS V14.01,2013-03-01 22:00:00,
2013-03-01 16:06:00,71.9,24.8,30.11,WNW,297,0.0,0.0,17,0.00,,SKC,0.00,VWS V14.01,2013-03-01 22:06:00,
2013-03-01 16:10:00,69.2,23.9,30.11,NNE,13,0.0,9.0,18,0.00,,SKC,0.00,VWS V14.01,2013-03-01 22:10:00,
2013-03-01 16:11:00,71.7,26.0,30.11,WNW,297,0.0,1.0,18,0.00,,SKC,0.00,VWS V14.01,2013-03-01 22:11:00,
2013-03-01 16:16:00,71.6,25.9,30.11,WNW,297,1.0,5.0,18,0.00,,SKC,0.00,VWS V14.01,2013-03-01 22:16:00,
2013-03-01 16:20:00,68.7,23.5,30.12,NNE,12,0.0,10.0,18,0.00,,SKC,0.00,VWS V14.01,2013-03-01 22:20:00,
2013-03-01 16:21:00,71.4,25.7,30.11,NW,304,0.0,7.0,18,0.00,,SKC,0.00,VWS V14.01,2013-03-01 22:21:00,
2013-03-01 16:26:00,71.2,25.6,30.11,NW,304,0.0,7.0,18,0.00,,SKC,0.00,VWS V14.01,2013-03-01 22:26:00,
2013-03-01 16:30:00,68.2,26.8,30.12,NNE,26,0.0,7.0,21,0.00,,SKC,0.00,VWS V14.01,2013-03-01 22:30:00,
2013-03-01 16:31:00,71.0,25.4,30.10,NW,305,0.0,5.0,18,0.00,,SKC,0.00,VWS V14.01,2013-03-01 22:31:00,
2013-03-01 16:36:00,70.7,25.1,30.11,NW,305,4.0,5.0,18,0.00,,SKC,0.00,VWS V14.01,2013-03-01 22:36:00,
2013-03-01 16:40:00,67.4,27.3,30.12,NNE,29,0.0,4.0,22,0.00,,SKC,0.00,VWS V14.01,2013-03-01 22:40:00,
2013-03-01 16:41:00,70.5,25.0,30.11,NW,306,3.0,4.0,18,0.00,,SKC,0.00,VWS V14.01,2013-03-01 22:41:00,
2013-03-01 16:46:00,70.3,24.8,30.11,NW,314,0.0,7.0,18,0.00,,SKC,0.00,VWS V14.01,2013-03-01 22:46:00,
2013-03-01 16:50:00,66.9,27.9,30.12,NNE,33,0.0,5.0,23,0.00,,SKC,0.00,VWS V14.01,2013-03-01 22:50:00,
2013-03-01 16:51:00,70.1,24.7,30.11,NW,317,6.0,8.0,18,0.00,,SKC,0.00,VWS V14.01,2013-03-01 22:51:00,
2013-03-01 16:56:00,69.8,24.4,30.11,NNW,329,4.0,10.0,18,0.00,,SKC,0.00,VWS V14.01,2013-03-01 22:56:00,
2013-03-01 17:00:00,66.2,27.3,30.13,NNE,33,0.0,7.0,23,0.00,,SKC,0.00,VWS V14.01,2013-03-01 23:00:00,
2013-03-01 17:01:00,69.5,24.2,30.11,NNW,335,0.0,6.0,18,0.00,,SKC,0.00,VWS V14.01,2013-03-01 23:01:00,
2013-03-01 17:05:00,69.3,24.0,30.11,North,9,6.0,9.0,18,0.00,,SKC,0.00,VWS V14.01,2013-03-01 23:05:00,
2013-03-01 17:10:00,69.0,23.8,30.11,NNE,13,4.0,10.0,18,0.00,,SKC,0.00,VWS V14.01,2013-03-01 23:10:00,
2013-03-01 17:15:00,68.7,23.5,30.12,NNE,13,4.0,10.0,18,0.00,,SKC,0.00,VWS V14.01,2013-03-01 23:15:00,
2013-03-01 17:20:00,68.5,24.6,30.12,NNE,24,0.0,7.0,19,0.00,,SKC,0.00,VWS V14.01,2013-03-01 23:20:00,
2013-03-01 17:25:00,68.3,26.9,30.12,NNE,25,0.0,7.0,21,0.00,,SKC,0.00,VWS V14.01,2013-03-01 23:25:00,
2013-03-01 17:30:00,67.8,27.6,30.12,NNE,26,1.0,1.0,22,0.00,,SKC,0.00,VWS V14.01,2013-03-01 23:30:00,
2013-03-01 17:35:00,67.5,28.4,30.12,NNE,29,0.0,4.0,23,0.00,,SKC,0.00,VWS V14.01,2013-03-01 23:35:00,
2013-03-01 17:40:00,67.2,28.2,30.12,NNE,32,3.0,5.0,23,0.00,,SKC,0.00,VWS V14.01,2013-03-01 23:40:00,
2013-03-01 17:45:00,66.9,27.9,30.12,NNE,33,2.0,5.0,23,0.00,,SKC,0.00,VWS V14.01,2013-03-01 23:45:00,
2013-03-01 17:50:00,66.6,27.7,30.12,NNE,33,2.0,7.0,23,0.00,,SKC,0.00,VWS V14.01,2013-03-01 23:50:00,
2013-03-01 17:55:00,66.3,27.4,30.12,NNE,33,0.0,7.0,23,0.00,,SKC,0.00,VWS V14.01,2013-03-01 23:55:00,
2013-03-01 18:00:00,63.8,15.3,30.16,NW,322,15.0,15.0,15,0.00,,SKC,0.00,VWS V14.01,2013-03-02 00:00:00,
2013-03-01 18:01:00,65.9,27.1,30.13,NNE,33,0.0,2.0,23,0.00,,SKC,0.00,VWS V14.01,2013-03-02 00:01:00,
2013-03-01 18:06:00,65.6,26.8,30.13,NNE,33,0.0,2.0,23,0.00,,SKC,0.00,VWS V14.01,2013-03-02 00:06:00,
2013-03-01 18:10:00,65.2,27.5,30.13,NNE,33,0.0,1.0,24,0.00,,SKC,0.00,VWS V14.01,2013-03-02 00:10:00,
2013-03-01 18:15:00,64.9,27.3,30.14,NE,35,0.0,5.0,24,0.00,,SKC,0.00,VWS V14.01,2013-03-02 00:15:00,
2013-03-01 18:20:00,64.5,26.9,30.14,NNE,17,0.0,9.0,24,0.00,,SKC,0.00,VWS V14.01,2013-03-02 00:20:00,
2013-03-01 18:25:00,64.1,27.6,30.14,NNW,338,8.0,10.0,25,0.00,,SKC,0.00,VWS V14.01,2013-03-02 00:25:00,
2013-03-01 18:30:00,63.9,22.1,30.15,NNW,338,4.0,10.0,20,0.00,,SKC,0.00,VWS V14.01,2013-03-02 00:30:00,
2013-03-01 18:35:00,64.0,16.9,30.15,NNW,328,0.0,12.0,16,0.00,,SKC,0.00,VWS V14.01,2013-03-02 00:35:00,
2013-03-01 18:40:00,64.0,15.4,30.15,NNW,340,2.0,8.0,15,0.00,,SKC,0.00,VWS V14.01,2013-03-02 00:40:00,
2013-03-01 18:45:00,64.0,13.9,30.15,NNW,330,4.0,14.0,14,0.00,,SKC,0.00,VWS V14.01,2013-03-02 00:45:00,
2013-03-01 18:50:00,63.9,15.4,30.15,NW,309,0.0,11.0,15,0.00,,SKC,0.00,VWS V14.01,2013-03-02 00:50:00,
2013-03-01 18:55:00,63.8,13.7,30.16,NNW,329,5.0,14.0,14,0.00,,SKC,0.00,VWS V14.01,2013-03-02 00:55:00,
2013-03-01 19:00:00,63.8,15.3,30.16,NNW,345,0.0,18.0,15,0.00,,SKC,0.00,VWS V14.01,2013-03-02 01:00:00,
2013-03-01 19:05:00,63.6,15.1,30.16,NW,317,9.0,18.0,15,0.00,,SKC,0.00,VWS V14.01,2013-03-02 01:05:00,
2013-03-01 19:10:00,63.5,15.1,30.16,NW,325,3.0,14.0,15,0.00,,SKC,0.00,VWS V14.01,2013-03-02 01:10:00,
2013-03-01 19:15:00,63.4,16.5,30.17,NW,322,0.0,16.0,16,0.00,,SKC,0.00,VWS V14.01,2013-03-02 01:15:00,
2013-03-01 19:20:00,63.1,16.2,30.17,NW,323,0.0,15.0,16,0.00,,SKC,0.00,VWS V14.01,2013-03-02 01:20:00,
2013-03-01 19:25:00,62.9,16.0,30.17,NNW,334,6.0,15.0,16,0.00,,SKC,0.00,VWS V14.01,2013-03-02 01:25:00,
2013-03-01 19:30:00,62.7,15.9,30.17,NW,323,4.0,10.0,16,0.00,,SKC,0.00,VWS V14.01,2013-03-02 01:30:00,
2013-03-01 19:35:00,62.5,17.1,30.18,NNW,327,0.0,10.0,17,0.00,,SKC,0.00,VWS V14.01,2013-03-02 01:35:00,
2013-03-01 19:40:00,62.2,16.9,30.18,NW,321,0.0,6.0,17,0.00,,SKC,0.00,VWS V14.01,2013-03-02 01:40:00,
2013-03-01 19:45:00,61.8,16.5,30.18,NW,321,0.0,6.0,17,0.00,,SKC,0.00,VWS V14.01,2013-03-02 01:45:00,
2013-03-01 19:50:00,61.3,17.5,30.19,NW,321,1.0,3.0,18,0.00,,SKC,0.00,VWS V14.01,2013-03-02 01:50:00,
2013-03-01 19:55:00,60.8,17.0,30.19,NW,320,0.0,3.0,18,0.00,,SKC,0.00,VWS V14.01,2013-03-02 01:55:00,
2013-03-01 20:00:00,60.3,16.6,30.20,NW,320,0.0,2.0,18,0.00,,SKC,0.00,VWS V14.01,2013-03-02 02:00:00,
2013-03-01 20:05:00,59.8,17.5,30.20,NW,320,0.0,2.0,19,0.00,,SKC,0.00,VWS V14.01,2013-03-02 02:05:00,
2013-03-01 20:10:00,59.3,17.1,30.20,NW,320,0.0,0.0,19,0.00,,SKC,0.00,VWS V14.01,2013-03-02 02:10:00,
2013-03-01 20:15:00,58.7,17.8,30.21,NW,320,0.0,0.0,20,0.00,,SKC,0.00,VWS V14.01,2013-03-02 02:15:00,
2013-03-01 20:20:00,58.3,17.4,30.21,NW,320,0.0,0.0,20,0.00,,SKC,0.00,VWS V14.01,2013-03-02 02:20:00,
2013-03-01 20:25:00,57.8,18.1,30.20,NW,320,0.0,0.0,21,0.00,,SKC,0.00,VWS V14.01,2013-03-02 02:25:00,
2013-03-01 20:30:00,57.4,17.8,30.21,NW,320,0.0,0.0,21,0.00,,SKC,0.00,VWS V14.01,2013-03-02 02:30:00,
2013-03-01 20:35:00,56.9,18.5,30.21,NW,320,0.0,0.0,22,0.00,,SKC,0.00,VWS V14.01,2013-03-02 02:35:00,
2013-03-01 20:40:00,56.6,18.2,30.21,NW,320,0.0,0.0,22,0.00,,SKC,0.00,VWS V14.01,2013-03-02 02:40:00,
2013-03-01 20:45:00,56.2,17.9,30.21,NW,320,0.0,0.0,22,0.00,,SKC,0.00,VWS V14.01,2013-03-02 02:45:00,
2013-03-01 20:50:00,55.9,18.7,30.22,NW,320,0.0,0.0,23,0.00,,SKC,0.00,VWS V14.01,2013-03-02 02:50:00,
2013-03-01 20:55:00,55.5,18.3,30.22,NW,320,0.0,0.0,23,0.00,,SKC,0.00,VWS V14.01,2013-03-02 02:55:00,
2013-03-01 21:00:00,55.1,18.0,30.22,NW,320,0.0,0.0,23,0.00,,SKC,0.00,VWS V14.01,2013-03-02 03:00:00,
2013-03-01 21:05:00,54.7,18.6,30.22,NW,320,0.0,0.0,24,0.00,,SKC,0.00,VWS V14.01,2013-03-02 03:05:00,
2013-03-01 21:10:00,54.1,18.1,30.23,NW,320,0.0,0.0,24,0.00,,SKC,0.00,VWS V14.01,2013-03-02 03:10:00,
2013-03-01 21:15:00,53.6,17.7,30.23,NW,320,0.0,0.0,24,0.00,,SKC,0.00,VWS V14.01,2013-03-02 03:15:00,
2013-03-01 21:20:00,53.0,19.0,30.23,NW,320,0.0,0.0,26,0.00,,SKC,0.00,VWS V14.01,2013-03-02 03:20:00,
2013-03-01 21:25:00,52.4,18.5,30.23,NW,320,0.0,0.0,26,0.00,,SKC,0.00,VWS V14.01,2013-03-02 03:25:00,
2013-03-01 21:30:00,51.8,18.9,30.23,NW,320,0.0,0.0,27,0.00,,SKC,0.00,VWS V14.01,2013-03-02 03:30:00,
2013-03-01 21:35:00,51.3,19.3,30.23,NW,320,0.0,0.0,28,0.00,,SKC,0.00,VWS V14.01,2013-03-02 03:35:00,
2013-03-01 21:40:00,50.7,19.6,30.23,NW,320,0.0,0.0,29,0.00,,SKC,0.00,VWS V14.01,2013-03-02 03:40:00,
2013-03-01 21:45:00,50.1,19.1,30.24,NW,320,0.0,0.0,29,0.00,,SKC,0.00,VWS V14.01,2013-03-02 03:45:00,
2013-03-01 21:50:00,50.0,19.8,30.25,NW,323,0.0,2.0,30,0.00,,SKC,0.00,VWS V14.01,2013-03-02 03:50:00,
2013-03-01 21:55:00,50.1,21.4,30.25,NE,53,0.0,6.0,32,0.00,,SKC,0.00,VWS V14.01,2013-03-02 03:55:00,
2013-03-01 22:00:00,50.3,23.7,30.26,NE,53,0.0,5.0,35,0.00,,SKC,0.00,VWS V14.01,2013-03-02 04:00:00,
2013-03-01 22:05:00,50.4,24.5,30.26,NE,51,0.0,6.0,36,0.00,,SKC,0.00,VWS V14.01,2013-03-02 04:05:00,
2013-03-01 22:10:00,50.5,25.9,30.27,NE,49,0.0,5.0,38,0.00,,SKC,0.00,VWS V14.01,2013-03-02 04:10:00,
2013-03-01 22:15:00,50.5,26.5,30.27,NE,49,6.0,7.0,39,0.00,,SKC,0.00,VWS V14.01,2013-03-02 04:15:00,
2013-03-01 22:20:00,50.5,27.1,30.27,NE,49,0.0,4.0,40,0.00,,SKC,0.00,VWS V14.01,2013-03-02 04:20:00,
2013-03-01 22:25:00,50.4,27.0,30.28,NE,46,0.0,4.0,40,0.00,,SKC,0.00,VWS V14.01,2013-03-02 04:25:00,
2013-03-01 22:30:00,50.3,26.9,30.28,NE,46,0.0,1.0,40,0.00,,SKC,0.00,VWS V14.01,2013-03-02 04:30:00,
2013-03-01 22:35:00,50.2,27.4,30.28,NE,46,1.0,1.0,41,0.00,,SKC,0.00,VWS V14.01,2013-03-02 04:35:00,
2013-03-01 22:40:00,50.1,27.3,30.28,NE,46,0.0,0.0,41,0.00,,SKC,0.00,VWS V14.01,2013-03-02 04:40:00,
2013-03-01 22:45:00,49.9,27.7,30.28,NE,46,0.0,0.0,42,0.00,,SKC,0.00,VWS V14.01,2013-03-02 04:45:00,
2013-03-01 22:50:00,49.7,27.6,30.28,NE,46,0.0,0.0,42,0.00,,SKC,0.00,VWS V14.01,2013-03-02 04:50:00,
2013-03-01 22:55:00,49.5,27.4,30.28,NE,46,0.0,5.0,42,0.00,,SKC,0.00,VWS V14.01,2013-03-02 04:55:00,
2013-03-01 23:00:00,49.4,27.3,30.28,NE,46,0.0,0.0,42,0.00,,SKC,0.00,VWS V14.01,2013-03-02 05:00:00,
2013-03-01 23:05:00,49.2,27.1,30.27,NE,46,0.0,0.0,42,0.00,,SKC,0.00,VWS V14.01,2013-03-02 05:05:00,
2013-03-01 23:10:00,48.9,26.8,30.27,NE,46,0.0,0.0,42,0.00,,SKC,0.00,VWS V14.01,2013-03-02 05:10:00,
2013-03-01 23:15:00,48.6,27.1,30.27,NE,46,0.0,0.0,43,0.00,,SKC,0.00,VWS V14.01,2013-03-02 05:15:00,
2013-03-01 23:20:00,48.2,26.8,30.27,NE,47,0.0,0.0,43,0.00,,SKC,0.00,VWS V14.01,2013-03-02 05:20:00,
2013-03-01 23:25:00,47.7,26.9,30.28,NE,46,0.0,0.0,44,0.00,,SKC,0.00,VWS V14.01,2013-03-02 05:25:00,
2013-03-01 23:30:00,47.2,27.0,30.28,NE,47,0.0,0.0,45,0.00,,SKC,0.00,VWS V14.01,2013-03-02 05:30:00,
2013-03-01 23:35:00,46.6,26.9,30.28,NE,46,0.0,0.0,46,0.00,,SKC,0.00,VWS V14.01,2013-03-02 05:35:00,
2013-03-01 23:40:00,45.9,26.8,30.28,NE,46,0.0,0.0,47,0.00,,SKC,0.00,VWS V14.01,2013-03-02 05:40:00,
2013-03-01 23:45:00,45.3,26.8,30.28,NE,46,0.0,0.0,48,0.00,,SKC,0.00,VWS V14.01,2013-03-02 05:45:00,
2013-03-01 23:50:00,44.7,26.7,30.29,NE,46,0.0,0.0,49,0.00,,SKC,0.00,VWS V14.01,2013-03-02 05:50:00,
2013-03-01 23:55:00,44.3,26.4,30.29,NE,46,0.0,0.0,49,0.00,,SKC,0.00,VWS V14.01,2013-03-02 05:55:00,